Location: Grieser Field
(39.7333°N, 81.7975°W)
Time: 14:10:52
(UTC-05:00)

Hubble Space Telescope - Visible Passes

Search period start: 19 February 2017 00:00
Search period end: 01 March 2017 00:00
Orbit: 538 x 542 km, 28.5° (Epoch: 19 February)

Date Brightness Start Highest point End Pass type
(mag) Time Alt. Az. Time Alt. Az. Time Alt. Az.
25 Feb 3.2 19:19:55 10° S 19:20:36 10° SSE 19:21:16 10° SSE visible
26 Feb 3.1 19:08:53 10° S 19:10:29 12° SSE 19:12:06 10° SE visible
27 Feb 3.1 18:58:19 10° SSW 19:00:23 13° SSE 19:02:27 10° SE visible
27 Feb 3.4 20:38:13 10° SW 20:38:57 13° SW 20:38:57 13° SW visible
28 Feb 3.0 18:47:57 10° SSW 18:50:18 15° S 18:52:39 10° SE visible
28 Feb 3.1 20:28:11 10° SW 20:29:37 15° SSW 20:29:37 15° SSW visible
